TimeEST,TemperatureF,Dew PointF,Humidity,Sea Level PressureIn,VisibilityMPH,Wind Direction,Wind SpeedMPH,Gust SpeedMPH,PrecipitationIn,Events,Conditions,WindDirDegrees,DateUTC
12:53 AM,71.1,51.1,49,30.20,10.0,East,12.7,19.6,N/A,,Partly Cloudy,80,2011-11-25 05:53:00
1:53 AM,71.1,54.0,55,30.20,10.0,ENE,10.4,-,N/A,,Mostly Cloudy,60,2011-11-25 06:53:00
2:53 AM,71.6,53.6,53,30.19,10.0,ENE,10.4,-,N/A,,Mostly Cloudy,70,2011-11-25 07:53:00
3:53 AM,72.0,53.1,51,30.19,10.0,East,11.5,-,N/A,,Overcast,80,2011-11-25 08:53:00
5:53 AM,72.0,55.9,57,30.20,10.0,East,11.5,-,N/A,,Overcast,80,2011-11-25 10:53:00
6:53 AM,72.0,50.0,46,30.22,10.0,East,8.1,-,N/A,,Overcast,90,2011-11-25 11:53:00
7:53 AM,72.0,53.1,51,30.22,10.0,East,9.2,-,N/A,,Mostly Cloudy,80,2011-11-25 12:53:00
8:53 AM,73.9,55.9,53,30.24,10.0,East,10.4,17.3,N/A,,Overcast,80,2011-11-25 13:53:00
9:53 AM,77.0,53.1,43,30.25,10.0,East,15.0,23.0,N/A,,Partly Cloudy,90,2011-11-25 14:53:00
10:53 AM,75.0,52.0,44,30.25,10.0,East,9.2,-,N/A,,Overcast,80,2011-11-25 15:53:00
11:53 AM,75.0,55.9,51,30.22,10.0,ENE,16.1,-,N/A,,Mostly Cloudy,70,2011-11-25 16:53:00
12:53 PM,75.9,54.0,46,30.21,10.0,East,15.0,20.7,N/A,,Partly Cloudy,80,2011-11-25 17:53:00
1:53 PM,75.2,53.6,47,30.19,10.0,East,12.7,21.9,N/A,,Mostly Cloudy,80,2011-11-25 18:53:00
2:53 PM,75.9,57.0,52,30.18,10.0,East,11.5,-,N/A,,Overcast,80,2011-11-25 19:53:00
3:53 PM,75.2,55.4,50,30.17,10.0,ENE,15.0,19.6,N/A,,Overcast,70,2011-11-25 20:53:00
4:53 PM,73.0,55.0,53,30.17,10.0,ENE,6.9,-,N/A,,Scattered Clouds,70,2011-11-25 21:53:00
5:53 PM,73.0,59.0,61,30.17,10.0,East,11.5,-,0.00,Rain,Light Rain,90,2011-11-25 22:53:00
6:53 PM,73.4,57.2,57,30.18,10.0,East,11.5,-,N/A,,Partly Cloudy,90,2011-11-25 23:53:00
7:53 PM,73.0,55.9,55,30.19,10.0,East,13.8,-,N/A,,Scattered Clouds,100,2011-11-26 00:53:00
8:53 PM,73.0,55.9,55,30.19,10.0,East,11.5,-,N/A,,Partly Cloudy,80,2011-11-26 01:53:00
9:53 PM,73.0,60.1,64,30.19,10.0,East,10.4,19.6,N/A,,Overcast,80,2011-11-26 02:53:00
10:53 PM,73.0,59.0,61,30.20,10.0,East,12.7,-,N/A,,Mostly Cloudy,90,2011-11-26 03:53:00
11:53 PM,73.0,61.0,66,30.20,10.0,East,12.7,-,N/A,,Scattered Clouds,80,2011-11-26 04:53:00